Flag for U.S.A. Weather past 2 weeks in Irving, Texas, U.S.A.

Now
81 °F

Scattered clouds.


Feels Like: 83 °F
Forecast: 73 / 92 °F
Wind: 8 mph from South

Location: Dallas / Fort Worth International Airport

Current Time: Sep 2, 2015 at 10:30:24 AM

Latest Report: Sep 2, 2015 at 9:53 AM


Visibility: 10 mi

Pressure: 30.05 "Hg

Humidity: 62%

Dew point: 67 °F

Location of IrvingLocation

Historic Weather in Irving — Graph

°F

Irving temperature yesterday

Maximum temperature yesterday: 94 °F (at 3:53 PM)
Minimum temperature yesterday: 75 °F (at 6:53 AM)
Average temperature yesterday: 84 °F

Past Weeks' High & Low Weather Summary

 TemperatureHumidityPressure
High98 °F (Aug 18, 3:53 PM)93% (Aug 21, 3:53 AM)30.13 "Hg (Aug 21, 3:53 AM)
Low65 °F (Aug 20, 4:59 AM)23% (Aug 26, 4:53 PM)29.66 "Hg (Aug 18, 7:53 PM)
Average84 °F57%29.94 "Hg
* Reported Aug 18 8:53 AM — Sep 2 8:53 AM, Irving, Weather by CustomWeather, © 2015

Note: Actual official high and low records may vary slightly from our data, if they occured in-between our weather recording intervals... More about our weather records

Advertising

Irving weather history for previous 24 hours

 ConditionsComfort  
Time TempWeatherWind HumidityBarometerVisibility
8:53 AM
Wed, Sep 2
78 °FScattered clouds.10 mph71%30.04 "Hg10 mi
7:53 AM75 °FClear.8 mph82%30.03 "Hg10 mi
6:53 AM74 °FPassing clouds.8 mph82%30.01 "Hg10 mi
5:53 AM74 °FClear.8 mph82%30.00 "Hg10 mi
4:53 AM75 °FClear.9 mph76%30.00 "Hg10 mi
3:53 AM77 °FClear.15 mph71%30.00 "Hg10 mi
2:53 AM77 °FClear.8 mph71%30.00 "Hg10 mi
1:53 AM79 °FClear.14 mph67%30.01 "Hg10 mi
12:53 AM80 °FClear.10 mph64%30.01 "Hg10 mi
11:53 PM
Tue, Sep 1
82 °FPassing clouds.13 mph60%30.00 "Hg10 mi
10:53 PM84 °FPassing clouds.14 mph53%29.99 "Hg10 mi
9:53 PM86 °FPassing clouds.14 mph51%29.98 "Hg10 mi
8:53 PM87 °FPassing clouds.13 mph46%29.96 "Hg10 mi
7:53 PM89 °FPassing clouds.14 mph43%29.93 "Hg10 mi
6:53 PM91 °FPassing clouds.14 mph41%29.93 "Hg10 mi
5:53 PM94 °FScattered clouds.14 mph31%29.92 "Hg10 mi
3:53 PM94 °FPartly sunny.13 mph33%29.93 "Hg10 mi
2:53 PM93 °FPartly sunny.7 mph36%29.96 "Hg10 mi
1:53 PM92 °FScattered clouds.12 mph38%29.97 "Hg10 mi
12:53 PM90 °FScattered clouds.10 mph42%29.99 "Hg10 mi
11:53 AM88 °FPassing clouds.7 mph48%30.01 "Hg10 mi
10:53 AM86 °FPassing clouds.9 mph53%30.02 "Hg10 mi
Weather by CustomWeather, © 2015

See weather overviewHow to use our weather pages